Date String (YYYY-MM-DD hh:mm:ss) UTC,Instrument flags,absolute air pressure of the measurement (hPa),sample flow rate (lpm),inlet stack bypass flow (lpm),air temperature of the measurement (°C),ambient temperature measured by the external sensor (°C),aerosol sample conditioner tube jacket temperature (°C),OPC LED temperature (°C),internal box temperature (°C),relative humidity of the measurement (%),span deviation,mass concentration of particles derived from Lorenz-Mie calculation of OPC scattering (μg/m³),mass concentration of particles derived from Lorenz-Mie calculation of OPC scattering (μg/m³),mass concentration of particles derived from Lorenz-Mie calculation of OPC scattering (μg/m³)
DateTimeUTC,F1_M11,P_M11,Q1_M11,Q2_M11,T1_M11,T2_M11,T3_M11,T4_M11,T5_M11,U1_M11,ZSPAN_M11,X2_M11,X0_M11,X1_M11
2023-07-02 13:00:00,SystemResetWarning,0832.5,5.01,000.00,029.7,028.2,000.0,038.3,031.3,21.1,0000.0,0004.36,0008.80,0003.93
2023-07-02 13:01:00,SystemResetWarning,0832.5,5.00,000.00,029.8,028.3,000.0,038.3,031.3,21.1,0000.0,0004.39,0009.44,0003.94
2023-07-02 13:02:00,SystemResetWarning,0832.5,5.00,000.00,029.8,028.4,000.0,038.3,031.3,22.5,0000.0,0004.36,0009.71,0003.92
2023-07-02 13:03:00,SystemResetWarning,0832.6,4.99,000.00,029.8,028.4,000.0,038.3,031.3,25.6,0000.0,0004.33,0009.66,0003.91
2023-07-02 13:04:00,SystemResetWarning,0832.6,4.99,000.00,029.8,028.5,000.0,038.4,031.4,25.8,0000.0,0004.36,0009.45,0003.91
2023-07-02 13:05:00,SystemResetWarning,0832.6,5.00,000.00,029.8,028.5,000.0,038.4,031.4,24.9,0000.0,0004.34,0009.33,0003.92
2023-07-02 13:06:00,SystemResetWarning,0832.6,5.01,000.00,029.8,028.6,000.0,038.4,031.4,24.4,0000.0,0004.33,0009.60,0003.92
2023-07-02 13:07:00,SystemResetWarning,0832.6,5.01,000.00,029.9,028.6,000.0,038.4,031.4,24.7,0000.0,0004.32,0009.64,0003.92
2023-07-02 13:08:00,SystemResetWarning,0832.6,5.00,000.00,029.9,028.6,000.0,038.4,031.4,25.8,0000.0,0004.32,0010.19,0003.92
2023-07-02 13:09:00,SystemResetWarning,0832.6,4.99,000.00,029.9,028.7,000.0,038.4,031.5,26.5,0000.0,0004.34,0010.42,0003.92
2023-07-02 13:10:00,SystemResetWarning,0832.7,5.00,000.00,029.9,028.3,000.0,038.4,031.5,25.2,0000.0,0004.33,0010.80,0003.92
2023-07-02 13:11:00,SystemResetWarning,0832.6,5.00,000.00,029.9,026.4,000.0,038.3,031.2,25.2,0000.0,0004.33,0010.91,0003.93
2023-07-02 13:12:00,SystemResetWarning,0832.6,5.01,000.00,029.8,025.3,000.0,038.2,031.1,26.3,0000.0,0004.34,0010.36,0003.93
2023-07-02 13:13:00,SystemResetWarning,0832.6,5.02,000.00,029.7,025.4,000.0,038.1,030.9,28.5,0000.0,0004.35,0010.18,0003.93
2023-07-02 13:14:00,SystemResetWarning,0832.6,4.99,000.00,029.6,025.7,000.0,038.1,030.8,28.2,0000.0,0004.37,0010.25,0003.94
2023-07-02 13:15:00,SystemResetWarning,0832.6,5.00,000.00,029.5,026.2,000.0,038.2,030.8,29.0,0000.0,0004.37,0010.29,0003.95
2023-07-02 13:16:00,SystemResetWarning,0832.5,5.01,000.00,029.5,026.5,000.0,038.2,030.9,28.8,0000.0,0004.37,0010.26,0003.96
2023-07-02 13:17:00,SystemResetWarning,0832.6,5.01,000.00,029.5,026.9,000.0,038.2,030.9,26.4,0000.0,0004.40,0009.72,0003.98
2023-07-02 13:18:00,SystemResetWarning,0832.7,4.99,000.00,029.5,027.2,000.0,038.2,030.9,26.1,0000.0,0004.44,0009.39,0004.00
2023-07-02 13:19:00,SystemResetWarning,0832.6,5.00,000.00,029.5,027.4,000.0,038.2,031.0,25.5,0000.0,0004.44,0008.78,0003.99
2023-07-02 13:20:00,SystemResetWarning,0832.7,5.00,000.00,029.5,027.6,000.0,038.1,031.0,23.9,0000.0,0004.42,0008.46,0003.99
2023-07-02 13:21:00,SystemResetWarning,0832.7,5.00,000.00,029.5,027.8,000.0,038.1,031.1,21.7,0000.0,0004.41,0008.12,0003.98
2023-07-02 13:22:00,SystemResetWarning,0832.7,5.00,000.00,029.5,027.9,000.0,038.1,031.1,21.4,0000.0,0004.39,0007.86,0003.97
2023-07-02 13:23:00,SystemResetWarning,0832.7,4.99,000.00,029.6,028.1,000.0,038.2,031.1,19.9,0000.0,0004.37,0007.75,0003.97
2023-07-02 13:24:00,SystemResetWarning,0832.7,5.00,000.00,029.6,028.1,000.0,038.2,031.2,20.9,0000.0,0004.34,0007.53,0003.96
2023-07-02 13:25:00,SystemResetWarning,0832.6,5.01,000.00,029.6,028.2,000.0,038.2,031.2,20.9,0000.0,0004.29,0007.40,0003.93
2023-07-02 13:26:00,SystemResetWarning,0832.6,5.02,000.00,029.6,028.3,000.0,038.2,031.2,20.8,0000.0,0004.26,0007.41,0003.90
2023-07-02 13:27:00,SystemResetWarning,0832.7,5.00,000.00,029.7,028.4,000.0,038.2,031.2,22.6,0000.0,0004.22,0007.11,0003.88
2023-07-02 13:28:00,SystemResetWarning,0832.6,4.99,000.00,029.7,028.4,000.0,038.2,031.3,23.7,0000.0,0004.19,0006.99,0003.86
2023-07-02 13:29:00,SystemResetWarning,0832.6,5.00,000.00,029.7,028.5,000.0,038.2,031.3,25.6,0000.0,0004.14,0006.69,0003.84
2023-07-02 13:30:00,SystemResetWarning,0832.6,5.00,000.00,029.7,028.5,000.0,038.2,031.3,27.2,0000.0,0004.15,0006.64,0003.85
2023-07-02 13:31:00,SystemResetWarning,0832.5,5.01,000.00,029.7,028.5,000.0,038.2,031.3,28.9,0000.0,0004.15,0006.63,0003.84
2023-07-02 13:32:00,SystemResetWarning,0832.5,5.01,000.00,029.8,028.6,000.0,038.3,031.4,24.5,0000.0,0004.17,0006.71,0003.85
2023-07-02 13:33:00,SystemResetWarning,0832.5,5.00,000.00,029.8,028.6,000.0,038.3,031.4,23.1,0000.0,0004.20,0006.82,0003.87
2023-07-02 13:34:00,SystemResetWarning,0832.5,4.99,000.00,029.8,028.6,000.0,038.3,031.4,22.8,0000.0,0004.19,0006.81,0003.87
2023-07-02 13:35:00,SystemResetWarning,0832.5,4.99,000.00,029.8,028.6,000.0,038.3,031.4,25.1,0000.0,0004.20,0006.85,0003.88
2023-07-02 13:36:00,SystemResetWarning,0832.4,5.00,000.00,029.8,027.6,000.0,038.2,031.4,21.5,0000.0,0004.23,0006.86,0003.90
2023-07-02 13:37:00,SystemResetWarning,0832.4,5.00,000.00,029.8,025.8,000.0,038.1,031.0,20.5,0000.0,0004.24,0006.70,0003.92
2023-07-02 13:38:00,SystemResetWarning,0832.5,5.01,000.00,029.7,025.3,000.0,038.0,030.9,23.0,0000.0,0004.26,0006.70,0003.94
2023-07-02 13:39:00,SystemResetWarning,0832.6,5.02,000.00,029.6,025.6,000.0,038.0,030.7,23.1,-000.3,0004.27,0006.73,0003.93
2023-07-02 13:40:00,SystemResetWarning,0832.5,4.99,000.00,029.5,026.0,000.0,038.1,030.7,24.0,-000.5,0004.27,0006.73,0003.93
2023-07-02 13:41:00,SystemResetWarning,0832.5,5.00,000.00,029.4,026.4,000.0,038.1,030.7,24.6,-000.5,0004.27,0006.75,0003.93
2023-07-02 13:42:00,SystemResetWarning,0832.5,4.99,000.00,029.4,026.7,000.0,038.1,030.8,26.1,-000.6,0004.29,0007.12,0003.94
2023-07-02 13:43:00,SystemResetWarning,0832.5,4.99,000.00,029.4,027.0,000.0,038.1,030.8,29.1,-000.3,0004.26,0007.64,0003.92
2023-07-02 13:44:00,SystemResetWarning,0832.5,5.00,000.00,029.4,027.3,000.0,038.1,030.9,28.8,-000.3,0004.23,0007.66,0003.91
2023-07-02 13:45:00,SystemResetWarning,0832.5,5.00,000.00,029.4,027.5,000.0,038.1,030.9,28.2,-000.8,0004.23,0007.68,0003.90
2023-07-02 13:46:00,SystemResetWarning,0832.5,5.00,000.00,029.4,027.7,000.0,038.0,031.0,30.3,-001.1,0004.25,0007.74,0003.90
2023-07-02 13:47:00,SystemResetWarning,0832.6,5.01,000.00,029.5,027.8,000.0,038.1,031.0,25.9,-000.9,0004.25,0007.72,0003.91
2023-07-02 13:48:00,SystemResetWarning,0832.6,5.01,000.00,029.5,027.9,000.0,038.1,031.0,28.0,-000.8,0004.26,0007.68,0003.91
2023-07-02 13:49:00,SystemResetWarning,0832.6,5.00,000.00,029.5,028.0,000.0,038.1,031.1,28.2,-000.7,0004.27,0007.71,0003.92
2023-07-02 13:50:00,SystemResetWarning,0832.6,4.99,000.00,029.5,028.1,000.0,038.1,031.1,28.1,-000.4,0004.30,0007.84,0003.94
2023-07-02 13:51:00,SystemResetWarning,0832.6,4.99,000.00,029.5,028.2,000.0,038.1,031.1,27.3,-000.2,0004.31,0007.91,0003.96
2023-07-02 13:52:00,SystemResetWarning,0832.6,5.00,000.00,029.6,028.3,000.0,038.1,031.1,25.4,-000.0,0004.33,0007.94,0003.97
2023-07-02 13:53:00,SystemResetWarning,0832.6,5.00,000.00,029.6,028.3,000.0,038.1,031.2,25.2,-000.5,0004.32,0007.70,0003.98
2023-07-02 13:54:00,SystemResetWarning,0832.6,5.01,000.00,029.6,028.4,000.0,038.1,031.2,25.6,-001.2,0004.34,0007.29,0003.99
2023-07-02 13:55:00,SystemResetWarning,0832.6,5.01,000.00,029.6,028.4,000.0,038.1,031.2,24.8,-000.9,0004.36,0007.29,0003.99
2023-07-02 13:56:00,SystemResetWarning,0832.5,5.00,000.00,029.7,028.5,000.0,038.2,031.3,23.9,-000.2,0004.37,0007.58,0003.98
2023-07-02 13:57:00,SystemResetWarning,0832.5,5.00,000.00,029.7,028.0,000.0,038.1,031.3,24.2,-000.5,0004.39,0007.75,0003.98
2023-07-02 13:58:00,SystemResetWarning,0832.5,4.99,000.00,029.7,026.2,000.0,038.0,031.0,25.2,-000.5,0004.40,0007.81,0003.99
2023-07-02 13:59:00,SystemResetWarning,0832.5,5.01,000.00,029.6,025.3,000.0,037.9,030.8,23.2,-000.2,0004.41,0007.87,0003.99
